Total_Precipitation_Accumulation
1.31 1.51 1.66 1.68 1.67 1.70 1.75 1.73 1.77 1.76 1.76 1.73 1.69 1.72 1.79 1.76 1.71 1.76 1.72 1.66 1.66 1.59 1.56 1.59 1.48 1.38 1.49 1.53 1.60 1.63 1.57 1.61 1.64 1.08 0.84 0.91 1.15 1.30 1.37 1.23 1.19 1.19 1.20
1.21 1.33 1.49 1.62 1.66 1.68 1.65 1.68 1.74 1.76 1.74 1.67 1.63 1.64 1.69 1.71 1.69 1.71 1.69 1.64 1.63 1.60 1.55 1.58 1.56 1.48 1.49 1.52 1.63 1.62 1.54 1.48 1.58 1.39 1.09 1.08 1.22 1.37 1.42 1.38 1.34 1.29 1.16
1.17 1.29 1.43 1.54 1.56 1.57 1.51 1.58 1.75 1.84 1.82 1.68 1.63 1.63 1.66 1.72 1.69 1.63 1.70 1.69 1.61 1.53 1.50 1.55 1.58 1.58 1.50 1.45 1.54 1.58 1.51 1.47 1.51 1.54 1.30 1.17 1.27 1.43 1.59 1.62 1.56 1.53 1.36
1.06 1.22 1.35 1.48 1.46 1.42 1.41 1.42 1.56 1.73 1.82 1.74 1.62 1.58 1.64 1.76 1.77 1.74 1.80 1.76 1.64 1.52 1.41 1.42 1.50 1.64 1.65 1.63 1.64 1.60 1.62 1.71 1.69 1.68 1.51 1.35 1.38 1.52 1.70 1.80 1.83 1.76 1.66
1.02 1.11 1.19 1.32 1.41 1.38 1.34 1.37 1.47 1.59 1.63 1.66 1.68 1.61 1.63 1.86 2.08 2.20 2.07 1.80 1.61 1.53 1.35 1.28 1.37 1.64 1.86 2.03 2.07 1.90 1.91 2.08 2.05 2.00 1.86 1.65 1.52 1.60 1.74 1.75 1.86 1.82 1.81
1.01 1.06 1.11 1.25 1.38 1.39 1.32 1.36 1.49 1.60 1.59 1.60 1.66 1.64 1.60 1.79 2.23 2.45 2.06 1.67 1.51 1.47 1.41 1.27 1.30 1.58 1.77 1.95 2.10 2.06 2.07 2.25 2.36 2.31 2.13 1.85 1.51 1.40 1.50 1.75 2.00 2.21 2.21
1.03 1.06 1.11 1.24 1.31 1.36 1.35 1.38 1.49 1.60 1.61 1.59 1.59 1.60 1.58 1.64 2.04 2.25 2.00 1.63 1.48 1.39 1.33 1.30 1.33 1.43 1.60 1.62 1.79 1.86 1.84 2.00 2.23 2.33 2.31 1.86 1.61 1.51 1.75 2.04 2.10 2.22 2.12
1.06 1.05 1.11 1.19 1.23 1.33 1.37 1.39 1.51 1.58 1.55 1.54 1.56 1.54 1.52 1.59 1.92 2.16 1.98 1.65 1.54 1.45 1.40 1.31 1.25 1.29 1.44 1.63 1.73 1.73 1.63 1.66 1.88 2.05 2.25 2.05 1.83 1.86 2.21 2.53 2.65 2.64 2.36
1.05 1.01 1.05 1.12 1.17 1.27 1.33 1.40 1.49 1.59 1.54 1.49 1.46 1.52 1.48 1.51 1.85 2.18 2.04 1.68 1.61 1.51 1.47 1.38 1.25 1.20 1.44 1.65 1.61 1.58 1.50 1.52 1.65 1.87 2.03 2.10 2.13 2.28 2.61 3.06 3.26 3.26 2.97
1.01 0.93 0.98 1.06 1.09 1.19 1.26 1.33 1.42 1.45 1.46 1.47 1.42 1.43 1.43 1.42 1.68 2.10 2.19 1.73 1.61 1.51 1.48 1.42 1.48 1.44 1.57 1.59 1.47 1.55 1.67 1.53 1.44 1.49 1.56 1.61 1.65 1.81 2.26 2.73 3.13 3.30 3.07
0.99 0.92 0.97 1.00 1.04 1.13 1.21 1.23 1.32 1.39 1.40 1.46 1.44 1.41 1.39 1.42 1.53 1.83 2.17 1.87 1.69 1.54 1.52 1.49 1.43 1.60 1.62 1.58 1.54 1.50 1.70 1.60 1.48 1.55 1.53 1.46 1.46 1.58 1.77 2.11 2.66 3.12 3.17
0.94 0.94 1.00 1.04 1.05 1.10 1.16 1.16 1.21 1.32 1.38 1.41 1.44 1.47 1.45 1.43 1.50 1.71 1.96 1.92 1.81 1.60 1.51 1.40 1.36 1.55 1.59 1.62 1.57 1.62 1.68 1.65 1.54 1.58 1.51 1.41 1.41 1.52 1.67 1.88 2.17 2.51 2.70
0.93 0.93 0.99 1.08 1.11 1.12 1.13 1.13 1.18 1.25 1.33 1.37 1.38 1.38 1.40 1.37 1.47 1.75 1.72 1.75 1.77 1.68 1.66 1.68 1.61 1.67 1.68 1.57 1.54 1.59 1.53 1.44 1.51 1.57 1.48 1.31 1.26 1.38 1.50 1.63 1.76 1.97 2.19
0.91 0.92 0.97 1.03 1.09 1.13 1.10 1.04 1.05 1.15 1.28 1.30 1.31 1.27 1.22 1.26 1.46 1.67 1.59 1.54 1.64 1.73 1.79 1.77 1.74 1.76 1.71 1.63 1.56 1.43 1.32 1.33 1.44 1.46 1.38 1.26 1.18 1.24 1.38 1.49 1.63 1.75 2.05
0.85 0.84 0.90 0.93 1.02 1.12 1.11 1.06 1.04 1.05 1.24 1.39 1.34 1.29 1.32 1.42 1.60 1.77 1.71 1.65 1.68 1.75 1.84 1.89 1.81 1.76 1.74 1.60 1.41 1.26 1.22 1.29 1.35 1.28 1.28 1.30 1.27 1.26 1.28 1.33 1.53 1.67 1.91
0.82 0.80 0.83 0.86 0.92 1.00 1.04 1.09 1.21 1.19 1.22 1.24 1.25 1.32 1.30 1.46 1.56 1.59 1.63 1.69 1.80 1.87 1.93 1.89 1.70 1.50 1.43 1.36 1.28 1.21 1.17 1.18 1.17 1.20 1.26 1.27 1.26 1.27 1.28 1.27 1.40 1.59 1.76
0.81 0.80 0.81 0.84 0.87 0.93 0.94 0.94 1.09 1.24 1.30 1.25 1.20 1.22 1.30 1.37 1.41 1.44 1.50 1.57 1.68 1.73 1.70 1.53 1.40 1.32 1.27 1.21 1.15 1.13 1.13 1.08 1.08 1.17 1.23 1.23 1.20 1.23 1.28 1.30 1.35 1.49 1.62
0.81 0.87 0.88 0.85 0.86 0.91 0.90 0.86 0.90 0.99 1.10 1.19 1.22 1.22 1.26 1.31 1.36 1.38 1.42 1.55 1.62 1.48 1.36 1.35 1.31 1.27 1.28 1.29 1.24 1.18 1.13 1.11 1.13 1.14 1.16 1.17 1.20 1.27 1.29 1.27 1.29 1.43 1.54
0.85 0.89 0.90 0.88 0.88 0.92 0.91 0.89 0.90 0.91 0.94 1.00 1.09 1.19 1.30 1.33 1.35 1.40 1.39 1.38 1.37 1.31 1.24 1.26 1.26 1.28 1.31 1.32 1.26 1.21 1.18 1.14 1.09 1.09 1.08 1.07 1.11 1.21 1.23 1.17 1.23 1.36 1.48
0.92 1.00 1.01 0.95 0.93 0.97 0.98 0.99 0.97 0.95 0.97 0.96 0.99 1.09 1.28 1.37 1.37 1.40 1.35 1.31 1.31 1.25 1.21 1.25 1.24 1.27 1.32 1.34 1.29 1.23 1.21 1.15 1.09 1.07 1.03 1.02 1.03 1.12 1.18 1.17 1.23 1.31 1.35
0.97 1.02 1.10 1.01 0.96 1.01 1.07 1.07 1.03 1.04 1.04 1.00 0.97 1.07 1.37 1.43 1.32 1.23 1.26 1.28 1.31 1.31 1.31 1.31 1.31 1.29 1.28 1.29 1.28 1.22 1.18 1.13 1.08 1.06 1.03 1.02 1.04 1.10 1.11 1.16 1.21 1.23 1.27
0.98 1.01 1.05 1.03 1.01 1.07 1.13 1.12 1.10 1.10 1.08 1.06 1.02 1.07 1.23 1.18 1.16 1.17 1.19 1.22 1.24 1.28 1.34 1.40 1.37 1.32 1.31 1.31 1.31 1.26 1.17 1.08 1.04 1.06 1.06 1.01 1.01 1.03 1.05 1.10 1.14 1.17 1.22
1.01 1.04 1.07 1.07 1.04 1.14 1.18 1.15 1.13 1.11 1.10 1.07 1.08 1.09 1.11 1.13 1.17 1.22 1.25 1.24 1.25 1.28 1.29 1.31 1.33 1.30 1.27 1.26 1.25 1.28 1.23 1.09 1.03 1.09 1.15 1.07 1.00 0.99 1.02 1.04 1.05 1.11 1.15
1.06 1.07 1.09 1.10 1.08 1.09 1.13 1.17 1.15 1.13 1.12 1.12 1.14 1.15 1.14 1.17 1.18 1.19 1.22 1.24 1.27 1.26 1.24 1.24 1.24 1.23 1.21 1.20 1.18 1.17 1.14 1.12 1.19 1.24 1.20 1.18 1.10 1.01 1.02 1.04 1.01 1.04 1.12
1.09 1.09 1.11 1.14 1.14 1.13 1.13 1.15 1.14 1.15 1.15 1.13 1.14 1.16 1.14 1.14 1.15 1.15 1.18 1.20 1.23 1.22 1.16 1.18 1.23 1.24 1.20 1.15 1.10 1.10 1.22 1.31 1.38 1.46 1.46 1.36 1.19 1.05 1.04 1.04 1.01 1.03 1.09
1.08 1.08 1.11 1.14 1.16 1.14 1.14 1.17 1.15 1.15 1.18 1.15 1.11 1.13 1.14 1.14 1.13 1.12 1.15 1.18 1.22 1.19 1.14 1.14 1.17 1.19 1.17 1.14 1.13 1.20 1.30 1.31 1.35 1.42 1.48 1.46 1.26 1.07 1.04 1.06 1.01 1.02 1.06